owner,sensor,date,latitude,longitude,sea_water_turbidity,qcFlag 
NERRS,ioos:station:NOAA.NERRS:gndbhwq:1,2016-10-07T16:45:00Z,30.4178,-88.4054,9.0,1111122 
NERRS,ioos:station:NOAA.NERRS:gndbhwq:1,2016-10-07T17:45:00Z,30.4178,-88.4054,8.0,1111122 
NERRS,ioos:station:NOAA.NERRS:gndbhwq:1,2016-10-07T18:45:00Z,30.4178,-88.4054,7.0,1111122 
NERRS,ioos:station:NOAA.NERRS:gndbhwq:1,2016-10-07T19:45:00Z,30.4178,-88.4054,8.0,1111122 
NERRS,ioos:station:NOAA.NERRS:gndbhwq:1,2016-10-07T20:45:00Z,30.4178,-88.4054,7.0,1111122 
NERRS,ioos:station:NOAA.NERRS:gndbhwq:1,2016-10-07T21:45:00Z,30.4178,-88.4054,7.0,1111122 
NERRS,ioos:station:NOAA.NERRS:gndbhwq:1,2016-10-07T22:45:00Z,30.4178,-88.4054,7.0,1111122 
NERRS,ioos:station:NOAA.NERRS:gndbhwq:1,2016-10-07T23:45:00Z,30.4178,-88.4054,8.0,1111122 
NERRS,ioos:station:NOAA.NERRS:gndbhwq:1,2016-10-08T00:45:00Z,30.4178,-88.4054,7.0,1111122 
NERRS,ioos:station:NOAA.NERRS:gndbhwq:1,2016-10-08T01:45:00Z,30.4178,-88.4054,7.0,1111122 
NERRS,ioos:station:NOAA.NERRS:gndbhwq:1,2016-10-08T02:45:00Z,30.4178,-88.4054,7.0,1111122 
NERRS,ioos:station:NOAA.NERRS:gndbhwq:1,2016-10-08T03:45:00Z,30.4178,-88.4054,6.0,1111122 
NERRS,ioos:station:NOAA.NERRS:gndbhwq:1,2016-10-08T04:45:00Z,30.4178,-88.4054,6.0,1111122 
NERRS,ioos:station:NOAA.NERRS:gndbhwq:1,2016-10-08T05:45:00Z,30.4178,-88.4054,6.0,1111122 
NERRS,ioos:station:NOAA.NERRS:gndbhwq:1,2016-10-08T06:45:00Z,30.4178,-88.4054,5.0,1111122 
NERRS,ioos:station:NOAA.NERRS:gndbhwq:1,2016-10-08T07:45:00Z,30.4178,-88.4054,5.0,1111122 
NERRS,ioos:station:NOAA.NERRS:gndbhwq:1,2016-10-08T08:45:00Z,30.4178,-88.4054,5.0,1111122 
NERRS,ioos:station:NOAA.NERRS:gndbhwq:1,2016-10-08T09:45:00Z,30.4178,-88.4054,5.0,1111122 
NERRS,ioos:station:NOAA.NERRS:gndbhwq:1,2016-10-08T10:45:00Z,30.4178,-88.4054,5.0,1111122 
NERRS,ioos:station:NOAA.NERRS:gndbhwq:1,2016-10-08T11:45:00Z,30.4178,-88.4054,7.0,1111122 
NERRS,ioos:station:NOAA.NERRS:gndbhwq:1,2016-10-08T12:45:00Z,30.4178,-88.4054,6.0,1111122 
NERRS,ioos:station:NOAA.NERRS:gndbhwq:1,2016-10-08T13:45:00Z,30.4178,-88.4054,8.0,1111122 
NERRS,ioos:station:NOAA.NERRS:gndbhwq:1,2016-10-08T14:45:00Z,30.4178,-88.4054,8.0,1111122 
NERRS,ioos:station:NOAA.NERRS:gndbhwq:1,2016-10-08T15:45:00Z,30.4178,-88.4054,8.0,1111122 
NERRS,ioos:station:NOAA.NERRS:gndbhwq:1,2016-10-08T16:45:00Z,30.4178,-88.4054,7.0,1111122 
NERRS,ioos:station:NOAA.NERRS:gndbhwq:1,2016-10-08T17:45:00Z,30.4178,-88.4054,9.0,1111122 
NERRS,ioos:station:NOAA.NERRS:gndbhwq:1,2016-10-08T18:45:00Z,30.4178,-88.4054,9.0,1111122 
NERRS,ioos:station:NOAA.NERRS:gndbhwq:1,2016-10-08T19:45:00Z,30.4178,-88.4054,9.0,1111122 
NERRS,ioos:station:NOAA.NERRS:gndbhwq:1,2016-10-08T20:45:00Z,30.4178,-88.4054,9.0,1111122 
NERRS,ioos:station:NOAA.NERRS:gndbhwq:1,2016-10-08T21:45:00Z,30.4178,-88.4054,8.0,1111122 
NERRS,ioos:station:NOAA.NERRS:gndbhwq:1,2016-10-08T22:45:00Z,30.4178,-88.4054,6.0,1111122 
NERRS,ioos:station:NOAA.NERRS:gndbhwq:1,2016-10-08T23:45:00Z,30.4178,-88.4054,7.0,1111122 
NERRS,ioos:station:NOAA.NERRS:gndbhwq:1,2016-10-09T00:45:00Z,30.4178,-88.4054,6.0,1111122 
NERRS,ioos:station:NOAA.NERRS:gndbhwq:1,2016-10-09T01:45:00Z,30.4178,-88.4054,7.0,1111122 
NERRS,ioos:station:NOAA.NERRS:gndbhwq:1,2016-10-09T02:45:00Z,30.4178,-88.4054,6.0,1111122 
NERRS,ioos:station:NOAA.NERRS:gndbhwq:1,2016-10-09T03:45:00Z,30.4178,-88.4054,5.0,1111122 
NERRS,ioos:station:NOAA.NERRS:gndbhwq:1,2016-10-09T04:45:00Z,30.4178,-88.4054,5.0,1111122 
NERRS,ioos:station:NOAA.NERRS:gndbhwq:1,2016-10-09T05:45:00Z,30.4178,-88.4054,6.0,1111122 
NERRS,ioos:station:NOAA.NERRS:gndbhwq:1,2016-10-09T06:45:00Z,30.4178,-88.4054,6.0,1111122 
NERRS,ioos:station:NOAA.NERRS:gndbhwq:1,2016-10-09T07:45:00Z,30.4178,-88.4054,6.0,1111122 
NERRS,ioos:station:NOAA.NERRS:gndbhwq:1,2016-10-09T08:45:00Z,30.4178,-88.4054,5.0,1111122 
NERRS,ioos:station:NOAA.NERRS:gndbhwq:1,2016-10-09T09:45:00Z,30.4178,-88.4054,4.0,1111122 
NERRS,ioos:station:NOAA.NERRS:gndbhwq:1,2016-10-09T10:45:00Z,30.4178,-88.4054,5.0,1111122 
NERRS,ioos:station:NOAA.NERRS:gndbhwq:1,2016-10-09T11:45:00Z,30.4178,-88.4054,6.0,1111122 
NERRS,ioos:station:NOAA.NERRS:gndbhwq:1,2016-10-09T12:45:00Z,30.4178,-88.4054,6.0,1111122 
NERRS,ioos:station:NOAA.NERRS:gndbhwq:1,2016-10-09T13:45:00Z,30.4178,-88.4054,10.0,1111122 
NERRS,ioos:station:NOAA.NERRS:gndbhwq:1,2016-10-09T14:45:00Z,30.4178,-88.4054,9.0,1111122 
NERRS,ioos:station:NOAA.NERRS:gndbhwq:1,2016-10-09T15:45:00Z,30.4178,-88.4054,11.0,1111122 
NERRS,ioos:station:NOAA.NERRS:gndbhwq:1,2016-10-09T16:45:00Z,30.4178,-88.4054,11.0,1111122 
NERRS,ioos:station:NOAA.NERRS:gndbhwq:1,2016-10-09T17:45:00Z,30.4178,-88.4054,10.0,1111122 
NERRS,ioos:station:NOAA.NERRS:gndbhwq:1,2016-10-09T18:45:00Z,30.4178,-88.4054,9.0,1111122 
NERRS,ioos:station:NOAA.NERRS:gndbhwq:1,2016-10-09T19:45:00Z,30.4178,-88.4054,10.0,1111122 
NERRS,ioos:station:NOAA.NERRS:gndbhwq:1,2016-10-09T20:45:00Z,30.4178,-88.4054,7.0,1111122 
NERRS,ioos:station:NOAA.NERRS:gndbhwq:1,2016-10-09T21:45:00Z,30.4178,-88.4054,11.0,1111122 
NERRS,ioos:station:NOAA.NERRS:gndbhwq:1,2016-10-09T22:45:00Z,30.4178,-88.4054,8.0,1111122 
NERRS,ioos:station:NOAA.NERRS:gndbhwq:1,2016-10-09T23:45:00Z,30.4178,-88.4054,7.0,1111122 
NERRS,ioos:station:NOAA.NERRS:gndbhwq:1,2016-10-10T00:45:00Z,30.4178,-88.4054,7.0,1111122 
NERRS,ioos:station:NOAA.NERRS:gndbhwq:1,2016-10-10T01:45:00Z,30.4178,-88.4054,7.0,1111122 
NERRS,ioos:station:NOAA.NERRS:gndbhwq:1,2016-10-10T02:45:00Z,30.4178,-88.4054,6.0,1111122 
NERRS,ioos:station:NOAA.NERRS:gndbhwq:1,2016-10-10T03:45:00Z,30.4178,-88.4054,5.0,1111122 
NERRS,ioos:station:NOAA.NERRS:gndbhwq:1,2016-10-10T04:45:00Z,30.4178,-88.4054,7.0,1111122 
NERRS,ioos:station:NOAA.NERRS:gndbhwq:1,2016-10-10T05:45:00Z,30.4178,-88.4054,7.0,1111122 
NERRS,ioos:station:NOAA.NERRS:gndbhwq:1,2016-10-10T06:45:00Z,30.4178,-88.4054,5.0,1111122 
NERRS,ioos:station:NOAA.NERRS:gndbhwq:1,2016-10-10T07:45:00Z,30.4178,-88.4054,7.0,1111122 
NERRS,ioos:station:NOAA.NERRS:gndbhwq:1,2016-10-10T08:45:00Z,30.4178,-88.4054,7.0,1111122 
NERRS,ioos:station:NOAA.NERRS:gndbhwq:1,2016-10-10T09:45:00Z,30.4178,-88.4054,8.0,1111122 
NERRS,ioos:station:NOAA.NERRS:gndbhwq:1,2016-10-10T10:45:00Z,30.4178,-88.4054,7.0,1111122 
NERRS,ioos:station:NOAA.NERRS:gndbhwq:1,2016-10-10T11:45:00Z,30.4178,-88.4054,10.0,1111122 
NERRS,ioos:station:NOAA.NERRS:gndbhwq:1,2016-10-10T12:45:00Z,30.4178,-88.4054,7.0,1111122 
NERRS,ioos:station:NOAA.NERRS:gndbhwq:1,2016-10-10T13:45:00Z,30.4178,-88.4054,8.0,1111122 
NERRS,ioos:station:NOAA.NERRS:gndbhwq:1,2016-10-10T14:45:00Z,30.4178,-88.4054,9.0,1111122 
NERRS,ioos:station:NOAA.NERRS:gndbhwq:1,2016-10-10T15:45:00Z,30.4178,-88.4054,10.0,1111122 
NERRS,ioos:station:NOAA.NERRS:gndbhwq:1,2016-10-10T16:45:00Z,30.4178,-88.4054,10.0,1111122 
NERRS,ioos:station:NOAA.NERRS:gndbhwq:1,2016-10-10T17:45:00Z,30.4178,-88.4054,12.0,1111122 
NERRS,ioos:station:NOAA.NERRS:gndbhwq:1,2016-10-10T18:45:00Z,30.4178,-88.4054,10.0,1111122 
NERRS,ioos:station:NOAA.NERRS:gndbhwq:1,2016-10-10T19:45:00Z,30.4178,-88.4054,10.0,1111122 
NERRS,ioos:station:NOAA.NERRS:gndbhwq:1,2016-10-10T20:45:00Z,30.4178,-88.4054,10.0,1111122 
NERRS,ioos:station:NOAA.NERRS:gndbhwq:1,2016-10-10T21:45:00Z,30.4178,-88.4054,10.0,1111122 
NERRS,ioos:station:NOAA.NERRS:gndbhwq:1,2016-10-10T22:45:00Z,30.4178,-88.4054,10.0,1111122 
NERRS,ioos:station:NOAA.NERRS:gndbhwq:1,2016-10-10T23:45:00Z,30.4178,-88.4054,9.0,1111122 
NERRS,ioos:station:NOAA.NERRS:gndbhwq:1,2016-10-11T00:45:00Z,30.4178,-88.4054,9.0,1111122 
NERRS,ioos:station:NOAA.NERRS:gndbhwq:1,2016-10-11T01:45:00Z,30.4178,-88.4054,9.0,1111122 
NERRS,ioos:station:NOAA.NERRS:gndbhwq:1,2016-10-11T02:45:00Z,30.4178,-88.4054,7.0,1111122 
NERRS,ioos:station:NOAA.NERRS:gndbhwq:1,2016-10-11T03:45:00Z,30.4178,-88.4054,8.0,1111122 
NERRS,ioos:station:NOAA.NERRS:gndbhwq:1,2016-10-11T04:45:00Z,30.4178,-88.4054,7.0,1111122 
NERRS,ioos:station:NOAA.NERRS:gndbhwq:1,2016-10-11T05:45:00Z,30.4178,-88.4054,8.0,1111122 
NERRS,ioos:station:NOAA.NERRS:gndbhwq:1,2016-10-11T06:45:00Z,30.4178,-88.4054,6.0,1111122 
NERRS,ioos:station:NOAA.NERRS:gndbhwq:1,2016-10-11T07:45:00Z,30.4178,-88.4054,8.0,1111122 
NERRS,ioos:station:NOAA.NERRS:gndbhwq:1,2016-10-11T08:45:00Z,30.4178,-88.4054,6.0,1111122 
NERRS,ioos:station:NOAA.NERRS:gndbhwq:1,2016-10-11T09:45:00Z,30.4178,-88.4054,7.0,1111122 
NERRS,ioos:station:NOAA.NERRS:gndbhwq:1,2016-10-11T10:45:00Z,30.4178,-88.4054,7.0,1111122 
NERRS,ioos:station:NOAA.NERRS:gndbhwq:1,2016-10-11T11:45:00Z,30.4178,-88.4054,9.0,1111122 
NERRS,ioos:station:NOAA.NERRS:gndbhwq:1,2016-10-11T12:45:00Z,30.4178,-88.4054,10.0,1111122 
NERRS,ioos:station:NOAA.NERRS:gndbhwq:1,2016-10-11T13:45:00Z,30.4178,-88.4054,11.0,1111122 
NERRS,ioos:station:NOAA.NERRS:gndbhwq:1,2016-10-11T14:45:00Z,30.4178,-88.4054,10.0,1111122 
NERRS,ioos:station:NOAA.NERRS:gndbhwq:1,2016-10-11T15:45:00Z,30.4178,-88.4054,12.0,1111122 
NERRS,ioos:station:NOAA.NERRS:gndbhwq:1,2016-10-11T16:45:00Z,30.4178,-88.4054,13.0,1111122 
NERRS,ioos:station:NOAA.NERRS:gndbhwq:1,2016-10-11T17:45:00Z,30.4178,-88.4054,12.0,1111122 
NERRS,ioos:station:NOAA.NERRS:gndbhwq:1,2016-10-11T18:45:00Z,30.4178,-88.4054,13.0,1111122 
NERRS,ioos:station:NOAA.NERRS:gndbhwq:1,2016-10-11T19:45:00Z,30.4178,-88.4054,13.0,1111122 
NERRS,ioos:station:NOAA.NERRS:gndbhwq:1,2016-10-11T20:45:00Z,30.4178,-88.4054,16.0,1111122 
NERRS,ioos:station:NOAA.NERRS:gndbhwq:1,2016-10-11T21:45:00Z,30.4178,-88.4054,10.0,1111122 
NERRS,ioos:station:NOAA.NERRS:gndbhwq:1,2016-10-11T22:45:00Z,30.4178,-88.4054,9.0,1111122 
NERRS,ioos:station:NOAA.NERRS:gndbhwq:1,2016-10-11T23:45:00Z,30.4178,-88.4054,10.0,1111122 
NERRS,ioos:station:NOAA.NERRS:gndbhwq:1,2016-10-12T00:45:00Z,30.4178,-88.4054,11.0,1111122 
NERRS,ioos:station:NOAA.NERRS:gndbhwq:1,2016-10-12T01:45:00Z,30.4178,-88.4054,11.0,1111122 
NERRS,ioos:station:NOAA.NERRS:gndbhwq:1,2016-10-12T02:45:00Z,30.4178,-88.4054,11.0,1111122 
NERRS,ioos:station:NOAA.NERRS:gndbhwq:1,2016-10-12T03:45:00Z,30.4178,-88.4054,11.0,1111122 
NERRS,ioos:station:NOAA.NERRS:gndbhwq:1,2016-10-12T04:45:00Z,30.4178,-88.4054,10.0,1111122 
NERRS,ioos:station:NOAA.NERRS:gndbhwq:1,2016-10-12T05:45:00Z,30.4178,-88.4054,10.0,1111122 
NERRS,ioos:station:NOAA.NERRS:gndbhwq:1,2016-10-12T06:45:00Z,30.4178,-88.4054,8.0,1111122 
NERRS,ioos:station:NOAA.NERRS:gndbhwq:1,2016-10-12T07:45:00Z,30.4178,-88.4054,10.0,1111122 
NERRS,ioos:station:NOAA.NERRS:gndbhwq:1,2016-10-12T08:45:00Z,30.4178,-88.4054,9.0,1111122 
NERRS,ioos:station:NOAA.NERRS:gndbhwq:1,2016-10-12T09:45:00Z,30.4178,-88.4054,8.0,1111122 
NERRS,ioos:station:NOAA.NERRS:gndbhwq:1,2016-10-12T10:45:00Z,30.4178,-88.4054,8.0,1111122 
NERRS,ioos:station:NOAA.NERRS:gndbhwq:1,2016-10-12T11:45:00Z,30.4178,-88.4054,9.0,1111122 
NERRS,ioos:station:NOAA.NERRS:gndbhwq:1,2016-10-12T12:45:00Z,30.4178,-88.4054,15.0,1111122 
NERRS,ioos:station:NOAA.NERRS:gndbhwq:1,2016-10-12T13:45:00Z,30.4178,-88.4054,11.0,1111122 
NERRS,ioos:station:NOAA.NERRS:gndbhwq:1,2016-10-12T14:45:00Z,30.4178,-88.4054,16.0,1111122 
NERRS,ioos:station:NOAA.NERRS:gndbhwq:1,2016-10-12T15:45:00Z,30.4178,-88.4054,13.0,1111122 
NERRS,ioos:station:NOAA.NERRS:gndbhwq:1,2016-10-12T16:45:00Z,30.4178,-88.4054,12.0,1111122 
NERRS,ioos:station:NOAA.NERRS:gndbhwq:1,2016-10-12T17:45:00Z,30.4178,-88.4054,12.0,1111122 
NERRS,ioos:station:NOAA.NERRS:gndbhwq:1,2016-10-12T18:45:00Z,30.4178,-88.4054,12.0,1111122 
NERRS,ioos:station:NOAA.NERRS:gndbhwq:1,2016-10-12T19:45:00Z,30.4178,-88.4054,12.0,1111122 
NERRS,ioos:station:NOAA.NERRS:gndbhwq:1,2016-10-12T20:45:00Z,30.4178,-88.4054,13.0,1111122 
NERRS,ioos:station:NOAA.NERRS:gndbhwq:1,2016-10-12T22:45:00Z,30.4178,-88.4054,13.0,1111122 
NERRS,ioos:station:NOAA.NERRS:gndbhwq:1,2016-10-12T23:45:00Z,30.4178,-88.4054,10.0,1111122 
NERRS,ioos:station:NOAA.NERRS:gndbhwq:1,2016-10-13T00:45:00Z,30.4178,-88.4054,11.0,1111122 
NERRS,ioos:station:NOAA.NERRS:gndbhwq:1,2016-10-13T01:45:00Z,30.4178,-88.4054,11.0,1111122 
NERRS,ioos:station:NOAA.NERRS:gndbhwq:1,2016-10-13T02:45:00Z,30.4178,-88.4054,11.0,1111122 
NERRS,ioos:station:NOAA.NERRS:gndbhwq:1,2016-10-13T03:45:00Z,30.4178,-88.4054,9.0,1111122 
NERRS,ioos:station:NOAA.NERRS:gndbhwq:1,2016-10-13T04:45:00Z,30.4178,-88.4054,8.0,1111122 
NERRS,ioos:station:NOAA.NERRS:gndbhwq:1,2016-10-13T05:45:00Z,30.4178,-88.4054,10.0,1111122 
NERRS,ioos:station:NOAA.NERRS:gndbhwq:1,2016-10-13T06:45:00Z,30.4178,-88.4054,8.0,1111122 
NERRS,ioos:station:NOAA.NERRS:gndbhwq:1,2016-10-13T07:45:00Z,30.4178,-88.4054,10.0,1111122 
NERRS,ioos:station:NOAA.NERRS:gndbhwq:1,2016-10-13T08:45:00Z,30.4178,-88.4054,9.0,1111122 
NERRS,ioos:station:NOAA.NERRS:gndbhwq:1,2016-10-13T09:45:00Z,30.4178,-88.4054,9.0,1111122 
NERRS,ioos:station:NOAA.NERRS:gndbhwq:1,2016-10-13T10:45:00Z,30.4178,-88.4054,10.0,1111122 
NERRS,ioos:station:NOAA.NERRS:gndbhwq:1,2016-10-13T11:45:00Z,30.4178,-88.4054,12.0,1111122 
NERRS,ioos:station:NOAA.NERRS:gndbhwq:1,2016-10-13T12:45:00Z,30.4178,-88.4054,11.0,1111122 
NERRS,ioos:station:NOAA.NERRS:gndbhwq:1,2016-10-13T13:45:00Z,30.4178,-88.4054,13.0,1111122 
NERRS,ioos:station:NOAA.NERRS:gndbhwq:1,2016-10-13T14:45:00Z,30.4178,-88.4054,13.0,1111122 
NERRS,ioos:station:NOAA.NERRS:gndbhwq:1,2016-10-13T15:45:00Z,30.4178,-88.4054,14.0,1111122 
NERRS,ioos:station:NOAA.NERRS:gndbhwq:1,2016-10-13T16:45:00Z,30.4178,-88.4054,13.0,1111122 
NERRS,ioos:station:NOAA.NERRS:gndbhwq:1,2016-10-13T17:45:00Z,30.4178,-88.4054,16.0,1111122 
NERRS,ioos:station:NOAA.NERRS:gndbhwq:1,2016-10-13T18:45:00Z,30.4178,-88.4054,14.0,1111122 
NERRS,ioos:station:NOAA.NERRS:gndbhwq:1,2016-10-13T19:45:00Z,30.4178,-88.4054,13.0,1111122 
NERRS,ioos:station:NOAA.NERRS:gndbhwq:1,2016-10-13T20:45:00Z,30.4178,-88.4054,16.0,1111122 
NERRS,ioos:station:NOAA.NERRS:gndbhwq:1,2016-10-13T21:45:00Z,30.4178,-88.4054,14.0,1111122 
NERRS,ioos:station:NOAA.NERRS:gndbhwq:1,2016-10-13T22:45:00Z,30.4178,-88.4054,13.0,1111122 
NERRS,ioos:station:NOAA.NERRS:gndbhwq:1,2016-10-13T23:45:00Z,30.4178,-88.4054,16.0,1111122 
NERRS,ioos:station:NOAA.NERRS:gndbhwq:1,2016-10-14T00:45:00Z,30.4178,-88.4054,11.0,1111122 
NERRS,ioos:station:NOAA.NERRS:gndbhwq:1,2016-10-14T01:45:00Z,30.4178,-88.4054,13.0,1111122 
NERRS,ioos:station:NOAA.NERRS:gndbhwq:1,2016-10-14T02:45:00Z,30.4178,-88.4054,14.0,1111122 
NERRS,ioos:station:NOAA.NERRS:gndbhwq:1,2016-10-14T03:45:00Z,30.4178,-88.4054,12.0,1111122 
NERRS,ioos:station:NOAA.NERRS:gndbhwq:1,2016-10-14T04:45:00Z,30.4178,-88.4054,14.0,1111122 
NERRS,ioos:station:NOAA.NERRS:gndbhwq:1,2016-10-14T05:45:00Z,30.4178,-88.4054,11.0,1111122 
NERRS,ioos:station:NOAA.NERRS:gndbhwq:1,2016-10-14T06:45:00Z,30.4178,-88.4054,15.0,1111122 
NERRS,ioos:station:NOAA.NERRS:gndbhwq:1,2016-10-14T07:45:00Z,30.4178,-88.4054,15.0,1111122 
NERRS,ioos:station:NOAA.NERRS:gndbhwq:1,2016-10-14T08:45:00Z,30.4178,-88.4054,13.0,1111122 
NERRS,ioos:station:NOAA.NERRS:gndbhwq:1,2016-10-14T09:45:00Z,30.4178,-88.4054,13.0,1111122 
NERRS,ioos:station:NOAA.NERRS:gndbhwq:1,2016-10-14T10:45:00Z,30.4178,-88.4054,15.0,1111122 
NERRS,ioos:station:NOAA.NERRS:gndbhwq:1,2016-10-14T11:45:00Z,30.4178,-88.4054,16.0,1111122 
NERRS,ioos:station:NOAA.NERRS:gndbhwq:1,2016-10-14T12:45:00Z,30.4178,-88.4054,19.0,1111122 
NERRS,ioos:station:NOAA.NERRS:gndbhwq:1,2016-10-14T13:45:00Z,30.4178,-88.4054,18.0,1111122 
NERRS,ioos:station:NOAA.NERRS:gndbhwq:1,2016-10-14T14:45:00Z,30.4178,-88.4054,23.0,1111122 
NERRS,ioos:station:NOAA.NERRS:gndbhwq:1,2016-10-14T15:45:00Z,30.4178,-88.4054,25.0,1111122 
NERRS,ioos:station:NOAA.NERRS:gndbhwq:1,2016-10-14T16:45:00Z,30.4178,-88.4054,25.0,1111122 
NERRS,ioos:station:NOAA.NERRS:gndbhwq:1,2016-10-14T17:45:00Z,30.4178,-88.4054,25.0,1111122 
NERRS,ioos:station:NOAA.NERRS:gndbhwq:1,2016-10-14T18:45:00Z,30.4178,-88.4054,20.0,1111122 
NERRS,ioos:station:NOAA.NERRS:gndbhwq:1,2016-10-14T19:45:00Z,30.4178,-88.4054,23.0,1111122 
NERRS,ioos:station:NOAA.NERRS:gndbhwq:1,2016-10-14T20:45:00Z,30.4178,-88.4054,23.0,1111122 
NERRS,ioos:station:NOAA.NERRS:gndbhwq:1,2016-10-14T21:45:00Z,30.4178,-88.4054,22.0,1111122 
NERRS,ioos:station:NOAA.NERRS:gndbhwq:1,2016-10-14T22:45:00Z,30.4178,-88.4054,22.0,1111122 
NERRS,ioos:station:NOAA.NERRS:gndbhwq:1,2016-10-14T23:45:00Z,30.4178,-88.4054,24.0,1111122 
NERRS,ioos:station:NOAA.NERRS:gndbhwq:1,2016-10-15T00:45:00Z,30.4178,-88.4054,22.0,1111122 
NERRS,ioos:station:NOAA.NERRS:gndbhwq:1,2016-10-15T01:45:00Z,30.4178,-88.4054,24.0,1111122 
NERRS,ioos:station:NOAA.NERRS:gndbhwq:1,2016-10-15T02:45:00Z,30.4178,-88.4054,24.0,1111122 
NERRS,ioos:station:NOAA.NERRS:gndbhwq:1,2016-10-15T03:45:00Z,30.4178,-88.4054,24.0,1111122 
NERRS,ioos:station:NOAA.NERRS:gndbhwq:1,2016-10-15T04:45:00Z,30.4178,-88.4054,22.0,1111122 
NERRS,ioos:station:NOAA.NERRS:gndbhwq:1,2016-10-15T05:45:00Z,30.4178,-88.4054,24.0,1111122 
NERRS,ioos:station:NOAA.NERRS:gndbhwq:1,2016-10-15T06:45:00Z,30.4178,-88.4054,20.0,1111122 
NERRS,ioos:station:NOAA.NERRS:gndbhwq:1,2016-10-15T07:45:00Z,30.4178,-88.4054,25.0,1111122 
NERRS,ioos:station:NOAA.NERRS:gndbhwq:1,2016-10-15T08:45:00Z,30.4178,-88.4054,25.0,1111122 
NERRS,ioos:station:NOAA.NERRS:gndbhwq:1,2016-10-15T09:45:00Z,30.4178,-88.4054,30.0,1111122 
NERRS,ioos:station:NOAA.NERRS:gndbhwq:1,2016-10-15T10:45:00Z,30.4178,-88.4054,29.0,1111122 
NERRS,ioos:station:NOAA.NERRS:gndbhwq:1,2016-10-15T11:45:00Z,30.4178,-88.4054,38.0,1111122 
NERRS,ioos:station:NOAA.NERRS:gndbhwq:1,2016-10-15T12:45:00Z,30.4178,-88.4054,47.0,1111122 
NERRS,ioos:station:NOAA.NERRS:gndbhwq:1,2016-10-15T13:45:00Z,30.4178,-88.4054,47.0,1111122 
NERRS,ioos:station:NOAA.NERRS:gndbhwq:1,2016-10-15T14:45:00Z,30.4178,-88.4054,47.0,1111122 
NERRS,ioos:station:NOAA.NERRS:gndbhwq:1,2016-10-15T15:45:00Z,30.4178,-88.4054,38.0,1111122 
NERRS,ioos:station:NOAA.NERRS:gndbhwq:1,2016-10-15T16:45:00Z,30.4178,-88.4054,40.0,1111122 
NERRS,ioos:station:NOAA.NERRS:gndbhwq:1,2016-10-15T17:45:00Z,30.4178,-88.4054,43.0,1111122 
NERRS,ioos:station:NOAA.NERRS:gndbhwq:1,2016-10-15T18:45:00Z,30.4178,-88.4054,45.0,1111122 
NERRS,ioos:station:NOAA.NERRS:gndbhwq:1,2016-10-15T19:45:00Z,30.4178,-88.4054,42.0,1111122 
NERRS,ioos:station:NOAA.NERRS:gndbhwq:1,2016-10-15T20:45:00Z,30.4178,-88.4054,44.0,1111122 
NERRS,ioos:station:NOAA.NERRS:gndbhwq:1,2016-10-15T21:45:00Z,30.4178,-88.4054,38.0,1111122 
NERRS,ioos:station:NOAA.NERRS:gndbhwq:1,2016-10-15T22:45:00Z,30.4178,-88.4054,41.0,1111122 
NERRS,ioos:station:NOAA.NERRS:gndbhwq:1,2016-10-15T23:45:00Z,30.4178,-88.4054,44.0,1111122 
NERRS,ioos:station:NOAA.NERRS:gndbhwq:1,2016-10-16T00:45:00Z,30.4178,-88.4054,50.0,1111122 
NERRS,ioos:station:NOAA.NERRS:gndbhwq:1,2016-10-16T01:45:00Z,30.4178,-88.4054,56.0,1111122 
NERRS,ioos:station:NOAA.NERRS:gndbhwq:1,2016-10-16T02:45:00Z,30.4178,-88.4054,48.0,1111122 
NERRS,ioos:station:NOAA.NERRS:gndbhwq:1,2016-10-16T03:45:00Z,30.4178,-88.4054,69.0,1111122 
NERRS,ioos:station:NOAA.NERRS:gndbhwq:1,2016-10-16T04:45:00Z,30.4178,-88.4054,57.0,1111122 
NERRS,ioos:station:NOAA.NERRS:gndbhwq:1,2016-10-16T05:45:00Z,30.4178,-88.4054,55.0,1111122 
NERRS,ioos:station:NOAA.NERRS:gndbhwq:1,2016-10-16T06:45:00Z,30.4178,-88.4054,49.0,1111122 
NERRS,ioos:station:NOAA.NERRS:gndbhwq:1,2016-10-16T07:45:00Z,30.4178,-88.4054,48.0,1111122 
NERRS,ioos:station:NOAA.NERRS:gndbhwq:1,2016-10-16T08:45:00Z,30.4178,-88.4054,52.0,1111122 
NERRS,ioos:station:NOAA.NERRS:gndbhwq:1,2016-10-16T09:45:00Z,30.4178,-88.4054,51.0,1111122 
NERRS,ioos:station:NOAA.NERRS:gndbhwq:1,2016-10-16T10:45:00Z,30.4178,-88.4054,58.0,1111122 
NERRS,ioos:station:NOAA.NERRS:gndbhwq:1,2016-10-16T11:45:00Z,30.4178,-88.4054,61.0,1111122 
NERRS,ioos:station:NOAA.NERRS:gndbhwq:1,2016-10-16T12:45:00Z,30.4178,-88.4054,60.0,1111122 
NERRS,ioos:station:NOAA.NERRS:gndbhwq:1,2016-10-16T13:45:00Z,30.4178,-88.4054,64.0,1111122 
NERRS,ioos:station:NOAA.NERRS:gndbhwq:1,2016-10-16T14:45:00Z,30.4178,-88.4054,59.0,1111122 
NERRS,ioos:station:NOAA.NERRS:gndbhwq:1,2016-10-16T15:45:00Z,30.4178,-88.4054,64.0,1111122 
NERRS,ioos:station:NOAA.NERRS:gndbhwq:1,2016-10-16T16:45:00Z,30.4178,-88.4054,65.0,1111122 
NERRS,ioos:station:NOAA.NERRS:gndbhwq:1,2016-10-16T17:45:00Z,30.4178,-88.4054,72.0,1111122 
NERRS,ioos:station:NOAA.NERRS:gndbhwq:1,2016-10-16T18:45:00Z,30.4178,-88.4054,64.0,1111122 
NERRS,ioos:station:NOAA.NERRS:gndbhwq:1,2016-10-16T19:45:00Z,30.4178,-88.4054,43.0,1111122 
NERRS,ioos:station:NOAA.NERRS:gndbhwq:1,2016-10-16T20:45:00Z,30.4178,-88.4054,40.0,1111122 
NERRS,ioos:station:NOAA.NERRS:gndbhwq:1,2016-10-16T21:45:00Z,30.4178,-88.4054,39.0,1111122 
NERRS,ioos:station:NOAA.NERRS:gndbhwq:1,2016-10-16T22:45:00Z,30.4178,-88.4054,30.0,1111122 
NERRS,ioos:station:NOAA.NERRS:gndbhwq:1,2016-10-16T23:45:00Z,30.4178,-88.4054,27.0,1111122 
NERRS,ioos:station:NOAA.NERRS:gndbhwq:1,2016-10-17T00:45:00Z,30.4178,-88.4054,32.0,1111122 
NERRS,ioos:station:NOAA.NERRS:gndbhwq:1,2016-10-17T01:45:00Z,30.4178,-88.4054,31.0,1111122 
NERRS,ioos:station:NOAA.NERRS:gndbhwq:1,2016-10-17T02:45:00Z,30.4178,-88.4054,48.0,1111122 
NERRS,ioos:station:NOAA.NERRS:gndbhwq:1,2016-10-17T03:45:00Z,30.4178,-88.4054,55.0,1111122 
NERRS,ioos:station:NOAA.NERRS:gndbhwq:1,2016-10-17T04:45:00Z,30.4178,-88.4054,49.0,1111122 
NERRS,ioos:station:NOAA.NERRS:gndbhwq:1,2016-10-17T05:45:00Z,30.4178,-88.4054,44.0,1111122 
NERRS,ioos:station:NOAA.NERRS:gndbhwq:1,2016-10-17T06:45:00Z,30.4178,-88.4054,53.0,1111122 
NERRS,ioos:station:NOAA.NERRS:gndbhwq:1,2016-10-17T07:45:00Z,30.4178,-88.4054,42.0,1111122 
NERRS,ioos:station:NOAA.NERRS:gndbhwq:1,2016-10-17T08:45:00Z,30.4178,-88.4054,52.0,1111122 
NERRS,ioos:station:NOAA.NERRS:gndbhwq:1,2016-10-17T09:45:00Z,30.4178,-88.4054,51.0,1111122 
NERRS,ioos:station:NOAA.NERRS:gndbhwq:1,2016-10-17T10:45:00Z,30.4178,-88.4054,49.0,1111122 
NERRS,ioos:station:NOAA.NERRS:gndbhwq:1,2016-10-17T11:45:00Z,30.4178,-88.4054,44.0,1111122 
NERRS,ioos:station:NOAA.NERRS:gndbhwq:1,2016-10-17T12:45:00Z,30.4178,-88.4054,44.0,1111122 
NERRS,ioos:station:NOAA.NERRS:gndbhwq:1,2016-10-22T01:45:00Z,30.4178,-88.4054,32.0,1111122 
NERRS,ioos:station:NOAA.NERRS:gndbhwq:1,2016-10-22T02:45:00Z,30.4178,-88.4054,27.0,1111122 
NERRS,ioos:station:NOAA.NERRS:gndbhwq:1,2016-10-22T03:45:00Z,30.4178,-88.4054,17.0,1111122 
NERRS,ioos:station:NOAA.NERRS:gndbhwq:1,2016-10-22T04:45:00Z,30.4178,-88.4054,37.0,1111122 
NERRS,ioos:station:NOAA.NERRS:gndbhwq:1,2016-10-22T05:45:00Z,30.4178,-88.4054,34.0,1111122 
NERRS,ioos:station:NOAA.NERRS:gndbhwq:1,2016-10-22T06:45:00Z,30.4178,-88.4054,32.0,1111122 
NERRS,ioos:station:NOAA.NERRS:gndbhwq:1,2016-10-22T07:45:00Z,30.4178,-88.4054,44.0,1111122 
NERRS,ioos:station:NOAA.NERRS:gndbhwq:1,2016-10-22T08:45:00Z,30.4178,-88.4054,38.0,1111122 
NERRS,ioos:station:NOAA.NERRS:gndbhwq:1,2016-10-22T09:45:00Z,30.4178,-88.4054,58.0,1111122 
NERRS,ioos:station:NOAA.NERRS:gndbhwq:1,2016-10-22T10:45:00Z,30.4178,-88.4054,34.0,1111122 
NERRS,ioos:station:NOAA.NERRS:gndbhwq:1,2016-10-22T11:45:00Z,30.4178,-88.4054,40.0,1111122 
NERRS,ioos:station:NOAA.NERRS:gndbhwq:1,2016-10-22T12:45:00Z,30.4178,-88.4054,27.0,1111122 
NERRS,ioos:station:NOAA.NERRS:gndbhwq:1,2016-10-22T13:45:00Z,30.4178,-88.4054,40.0,1111122 
NERRS,ioos:station:NOAA.NERRS:gndbhwq:1,2016-10-22T14:45:00Z,30.4178,-88.4054,56.0,1111122 
NERRS,ioos:station:NOAA.NERRS:gndbhwq:1,2016-10-22T15:45:00Z,30.4178,-88.4054,57.0,1111122 
NERRS,ioos:station:NOAA.NERRS:gndbhwq:1,2016-10-22T16:45:00Z,30.4178,-88.4054,45.0,1111122 
NERRS,ioos:station:NOAA.NERRS:gndbhwq:1,2016-10-22T17:45:00Z,30.4178,-88.4054,39.0,1111122 
NERRS,ioos:station:NOAA.NERRS:gndbhwq:1,2016-10-22T18:45:00Z,30.4178,-88.4054,35.0,1111122 
NERRS,ioos:station:NOAA.NERRS:gndbhwq:1,2016-10-22T19:45:00Z,30.4178,-88.4054,39.0,1111122 
NERRS,ioos:station:NOAA.NERRS:gndbhwq:1,2016-10-22T20:45:00Z,30.4178,-88.4054,40.0,1111122 
NERRS,ioos:station:NOAA.NERRS:gndbhwq:1,2016-10-22T21:45:00Z,30.4178,-88.4054,54.0,1111122 
NERRS,ioos:station:NOAA.NERRS:gndbhwq:1,2016-10-22T22:45:00Z,30.4178,-88.4054,42.0,1111122 
NERRS,ioos:station:NOAA.NERRS:gndbhwq:1,2016-10-22T23:45:00Z,30.4178,-88.4054,74.0,1111122 
NERRS,ioos:station:NOAA.NERRS:gndbhwq:1,2016-10-23T00:45:00Z,30.4178,-88.4054,48.0,1111122 
NERRS,ioos:station:NOAA.NERRS:gndbhwq:1,2016-10-23T01:45:00Z,30.4178,-88.4054,58.0,1111122 